Weather History for KMCF - November, 2013

Change the Weather History Date:

Wednesday, November 6, 2013

  Actual Average Record
Temperature  
Mean Temperature 77 °F -  
Max Temperature 86 °F 78 °F 87 °F (1996)
Min Temperature 68 °F 61 °F 44 °F (2010)
Cooling Degree Days 12    
Growing Degree Days 27 (Base 50)    
Moisture  
Dew Point 68 °F    
Average Humidity 80    
Maximum Humidity 99    
Minimum Humidity 50    
Precipitation  
Precipitation 0.13 in - - ()
Sea Level Pressure  
Sea Level Pressure 30.09 in    
Wind  
Wind Speed 10 mph (ENE)    
Max Wind Speed 14 mph    
Max Gust Speed -    
Visibility 10 miles    
Events      
Averages and records for this station are not official NWS values.
T = Trace of Precipitation, MM = Missing Value Source: NWS Daily Summary

Daily Weather History Graph

Daily Weather History Graph

Search for Another Location

Airport or City:

Trip Planner

Search our weather history database for the weather conditions in past years. The results will help you decide how hot, cold, wet, or windy it might be!

Date:

Astronomy

Nov. 06, 2013 Rise Set
Actual Time 6:44 AM EST 5:42 PM EST
Civil Twilight 6:20 AM EST 6:06 PM EST
Nautical Twilight 5:52 AM EST 6:34 PM EST
Astronomical Twilight 5:24 AM EST 7:02 PM EST
Moon 9:51 AM EST (11/6) 8:51 PM EST (11/6)
Length of Visible Light 11h 46m
Length of Day
10h 57m
Waxing Crescent, 13% of the Moon is Illuminated
Nov 6
Waxing Crescent
Nov 10
First Quarter
Nov 17
Full
Nov 25
Last Quarter
Dec 2
New

Hourly Weather History & Observations

Time (EST) Temp. Heat Index Dew Point Humidity Pressure Visibility Wind Dir Wind Speed Gust Speed Precip Events Conditions
12:58 AM 72.1 °F - 68.7 °F 89% 30.12 in 10.0 mi East 9.2 mph - N/A   Mostly Cloudy
1:58 AM 71.6 °F - 68.5 °F 90% 30.11 in 10.0 mi East 9.2 mph - N/A   Mostly Cloudy
2:58 AM 70.3 °F - 67.6 °F 91% 30.09 in 10.0 mi ENE 12.7 mph - N/A   Partly Cloudy
3:58 AM 69.4 °F - 67.8 °F 95% 30.08 in 10.0 mi East 12.7 mph - N/A   Mostly Cloudy
4:58 AM 70.2 °F - 68.4 °F 94% 30.09 in 10.0 mi East 10.4 mph - N/A   Overcast
5:58 AM 70.0 °F - 68.4 °F 95% 30.10 in 10.0 mi East 10.4 mph - N/A   Overcast
6:58 AM 70.0 °F - 68.5 °F 95% 30.11 in 10.0 mi East 10.4 mph - N/A   Overcast
7:58 AM 71.2 °F - 69.1 °F 93% 30.13 in 10.0 mi East 12.7 mph - N/A   Mostly Cloudy
8:58 AM 74.3 °F - 69.4 °F 85% 30.12 in 10.0 mi East 12.7 mph - N/A   Clear
9:58 AM 78.4 °F - 70.0 °F 75% 30.13 in 10.0 mi East 11.5 mph - N/A   Clear
10:58 AM 81.9 °F 86.2 °F 71.1 °F 70% 30.11 in 10.0 mi ENE 11.5 mph - N/A   Clear
11:58 AM 83.8 °F 86.3 °F 66.7 °F 56% 30.10 in - NNE 2.3 mph - N/A   Clear
12:58 PM 84.9 °F 86.6 °F 65.1 °F 51% 30.08 in 10.0 mi ESE 10.4 mph - 0.13 in   Clear
1:58 PM 85.8 °F 88.2 °F 66.6 °F 52% 30.06 in 10.0 mi East 6.9 mph - N/A   Clear
2:58 PM 85.8 °F 87.9 °F 65.8 °F 51% 30.05 in 10.0 mi ENE 4.6 mph - N/A   Clear
3:58 PM 86.9 °F 89.3 °F 66.0 °F 50% 30.04 in 10.0 mi East 8.1 mph - N/A   Clear
4:58 PM 82.8 °F 84.9 °F 66.2 °F 57% 30.04 in 10.0 mi ENE 4.6 mph - N/A   Clear
5:58 PM 76.6 °F - 67.6 °F 74% 30.05 in 10.0 mi ENE 6.9 mph - N/A   Clear
6:58 PM 73.0 °F - 68.2 °F 85% 30.06 in 10.0 mi ENE 9.2 mph - N/A   Clear
7:58 PM 72.7 °F - 68.0 °F 85% 30.07 in 10.0 mi ENE 13.8 mph - N/A   Clear
8:58 PM 71.4 °F - 67.8 °F 88% 30.09 in 10.0 mi ENE 9.2 mph - N/A   Clear
9:58 PM 70.3 °F - 68.2 °F 93% 30.09 in 10.0 mi ENE 8.1 mph - N/A   Scattered Clouds
10:58 PM 68.9 °F - 67.8 °F 96% 30.08 in 10.0 mi ENE 6.9 mph - N/A   Clear
11:58 PM 68.7 °F - 68.4 °F 99% 30.08 in 10.0 mi ENE 5.8 mph - N/A   Clear